FW4608 Weather Reports


time (UTC)temp
C
wind
direction
speed
KPH
gust
KPH
rain 1hr
cm
rain 24hr
cm
rain mn
cm
humidity
%
barometer
mb
20260506081106 15 155 0.0 0.0 0.00 0.00 0.00 91 1015.3
20260506080602 15 155 0.0 0.0 0.00 0.00 0.00 90 1015.3
20260506073052 15 155 0.0 0.0 0.00 0.00 0.00 90 1015.1
20260506072552 15 155 0.0 0.0 0.00 0.00 0.00 90 1015.2
20260506072052 15 155 0.0 0.0 0.00 0.00 0.00 90 1015.3
20260506071548 15 155 0.0 0.0 0.00 0.00 0.00 90 1015.3
20260506071049 15 155 0.0 0.0 0.00 0.00 0.00 90 1015.3
20260506070549 15 155 0.0 0.0 0.00 0.00 0.00 90 1015.4
20260506070150 15 155 0.0 0.0 0.00 0.00 0.00 90 1015.3
20260506062040 16 155 0.0 0.0 0.00 0.00 0.00 89 1015.7
20260506061542 16 155 0.0 0.0 0.00 0.00 0.00 89 1015.8
20260506061041 16 155 0.0 0.0 0.00 0.00 0.00 89 1015.8
20260506060536 16 155 0.0 0.0 0.00 0.00 0.00 89 1015.8
20260506051022 16 155 0.0 0.0 0.00 0.00 0.00 88 1016.4
20260506050530 16 155 0.0 0.0 0.00 0.00 0.00 88 1016.5
20260506045025 16 155 0.0 0.0 0.00 0.00 0.00 88 1016.6
20260506044519 16 155 0.0 0.0 0.00 0.00 0.00 87 1016.5
20260506044011 16 155 0.0 0.0 0.00 0.00 0.00 87 1016.7
20260506043510 16 155 0.0 0.0 0.00 0.00 0.00 87 1016.6
20260506042501 16 155 0.0 0.0 0.00 0.00 0.00 87 1016.5
20260506042058 16 155 0.0 0.0 0.00 0.00 0.00 87 1016.7
20260506041559 16 155 0.0 0.0 0.00 0.00 0.00 87 1016.8
20260506041055 16 155 0.0 0.0 0.00 0.00 0.00 86 1016.9
20260506040555 16 155 0.0 0.0 0.00 0.00 0.00 86 1017.0
20260506040053 16 155 0.0 0.0 0.00 0.00 0.00 87 1016.9
20260506035553 16 155 0.0 0.0 0.00 0.00 0.00 86 1016.8
20260506035054 16 155 0.0 0.0 0.00 0.00 0.00 86 1016.8
20260506034555 17 155 0.0 0.0 0.00 0.00 0.00 85 1016.7
20260506034053 17 155 0.0 0.0 0.00 0.00 0.00 85 1016.5
20260506033551 17 155 0.0 0.0 0.00 0.00 0.00 85 1016.4
20260506033053 17 155 0.0 0.0 0.00 0.00 0.00 85 1016.4
20260506032554 17 155 0.0 0.0 0.00 0.00 0.00 85 1016.4
20260506032053 17 155 0.0 0.0 0.00 0.00 0.00 86 1016.3
20260506031548 17 155 0.0 0.0 0.00 0.00 0.00 86 1016.3
20260506031048 17 155 0.0 0.0 0.00 0.00 0.00 85 1016.3
20260506030552 17 155 0.0 0.0 0.00 0.00 0.00 84 1016.3
20260506030046 17 155 0.0 0.0 0.00 0.00 0.00 84 1016.2
20260506025552 17 155 0.0 0.0 0.00 0.00 0.00 84 1016.2
20260506025046 17 155 0.0 0.0 0.00 0.00 0.00 84 1016.2
20260506024548 17 155 0.0 0.0 0.00 0.00 0.00 83 1016.2
20260506024045 18 155 0.0 0.0 0.00 0.00 0.00 82 1016.2
20260506023545 18 155 0.0 0.0 0.00 0.00 0.00 81 1016.3
20260506023055 18 155 0.0 0.0 0.00 0.00 0.00 81 1016.2
20260506022541 18 155 0.0 0.0 0.00 0.00 0.00 82 1016.1
20260506022042 18 155 0.0 0.0 0.00 0.00 0.00 81 1016.1
20260506021552 18 155 0.0 0.0 0.00 0.00 0.00 81 1016.0
20260506021041 18 155 0.0 0.0 0.00 0.00 0.00 81 1016.0
20260506020541 18 155 0.0 0.0 0.00 0.00 0.00 80 1016.0
20260506020040 19 155 0.0 0.0 0.00 0.00 0.00 79 1015.9
20260506015538 19 155 0.0 0.0 0.00 0.00 0.00 79 1015.8
20260506015039 19 155 0.0 0.0 0.00 0.00 0.00 79 1015.8
20260506014539 19 155 0.0 0.0 0.00 0.00 0.00 78 1015.8
20260506014036 20 155 0.0 0.0 0.00 0.00 0.00 78 1015.8
20260506013535 20 155 0.0 0.0 0.00 0.00 0.00 77 1015.7
20260506013033 20 155 0.0 0.0 0.00 0.00 0.00 77 1015.7
20260506012532 20 155 0.0 0.0 0.00 0.00 0.00 77 1015.6
20260506012032 20 155 0.0 0.0 0.00 0.00 0.00 76 1015.7
20260506011535 20 155 0.0 0.0 0.00 0.00 0.00 76 1015.6
20260506011030 20 155 0.0 0.0 0.00 0.00 0.00 75 1015.5
20260506010529 20 155 0.0 0.0 0.00 0.00 0.00 75 1015.7
20260506010044 21 155 0.0 0.0 0.00 0.00 0.00 75 1015.7
20260506005530 21 155 0.0 1.6 0.00 0.00 0.00 74 1015.6
20260506005028 21 155 0.0 1.6 0.00 0.00 0.00 73 1015.5
20260506004528 21 323 0.0 0.0 0.00 0.00 0.00 72 1015.6
20260506004025 21 323 0.0 1.6 0.00 0.00 0.00 72 1015.6
20260506003529 21 323 0.0 3.2 0.00 0.00 0.00 72 1015.5
20260506003024 21 136 0.0 3.2 0.00 0.00 0.00 72 1015.5
20260506002524 21 333 0.0 1.6 0.00 0.00 0.00 71 1015.4
20260506002026 22 343 0.0 3.2 0.00 0.00 0.00 70 1015.4
20260506001531 22 124 0.0 3.2 0.00 0.00 0.00 70 1015.4
20260506001023 22 324 0.0 1.6 0.00 0.00 0.00 70 1015.2
20260506000625 22 334 0.0 1.6 0.00 0.00 0.00 69 1015.2
20260506000019 22 3 0.0 3.2 0.00 0.00 0.00 69 1015.3
20260505235523 22 325 0.0 8.0 0.00 0.00 0.00 68 1015.1
20260505235020 22 250 0.0 8.0 0.00 0.00 0.00 67 1015.1
20260505234533 23 82 0.0 8.0 0.00 0.00 0.00 67 1015.2
20260505234023 23 178 0.0 6.4 0.00 0.00 0.00 66 1015.1
20260505233614 23 178 0.0 6.4 0.00 0.00 0.00 66 1015.1
20260505233011 23 280 0.0 8.0 0.00 0.00 0.00 65 1015.1
20260505232513 23 298 0.0 8.0 0.00 0.00 0.00 63 1015.0
20260505232016 23 211 1.6 8.0 0.00 0.00 0.00 63 1015.1
20260505231513 24 179 1.6 8.0 0.00 0.00 0.00 61 1015.0
20260505231015 25 89 0.0 6.4 0.00 0.00 0.00 61 1015.0
20260505230525 25 254 0.0 8.0 0.00 0.00 0.00 60 1014.9
20260505230013 25 92 1.6 12.9 0.00 0.00 0.00 59 1015.1
20260505225510 25 99 1.6 8.0 0.00 0.00 0.00 59 1015.1
20260505225006 25 221 1.6 4.8 0.00 0.00 0.00 58 1015.1
20260505224507 25 311 0.0 4.8 0.00 0.00 0.00 58 1015.0
20260505224006 25 236 0.0 9.7 0.00 0.00 0.00 58 1015.1
20260505223505 25 124 1.6 8.0 0.00 0.00 0.00 58 1015.1
20260505223002 25 165 0.0 8.0 0.00 0.00 0.00 58 1015.0
20260505222503 25 150 1.6 6.4 0.00 0.00 0.00 57 1015.0
20260505222002 25 25 0.0 8.0 0.00 0.00 0.00 56 1015.0
20260505221600 26 103 1.6 8.0 0.00 0.00 0.00 56 1015.2
20260505221501 26 300 0.0 8.0 0.00 0.00 0.00 57 1015.1
20260505221101 26 32 3.2 8.0 0.00 0.00 0.00 55 1015.0
20260505221002 26 160 1.6 6.4 0.00 0.00 0.00 56 1015.1
20260505220602 26 323 0.0 9.7 0.00 0.00 0.00 56 1014.9
20260505220100 26 296 1.6 12.9 0.00 0.00 0.00 54 1015.0
20260505215558 26 297 1.6 12.9 0.00 0.00 0.00 53 1015.1
20260505215101 26 72 1.6 9.7 0.00 0.00 0.00 52 1015.1
20260505214624 27 105 1.6 9.7 0.00 0.00 0.00 52 1015.0
20260505214056 27 150 1.6 9.7 0.00 0.00 0.00 53 1014.9
20260505213554 27 84 1.6 9.7 0.00 0.00 0.00 53 1015.1
20260505212558 27 215 1.6 14.5 0.00 0.00 0.00 53 1015.0
20260505212052 27 203 0.0 11.3 0.00 0.00 0.00 52 1015.0
20260505211551 27 221 3.2 11.3 0.00 0.00 0.00 52 1015.1
20260505211052 28 306 1.6 8.0 0.00 0.00 0.00 52 1015.1
20260505210650 28 124 0.0 9.7 0.00 0.00 0.00 54 1015.2
20260505210057 28 313 1.6 9.7 0.00 0.00 0.00 51 1015.1
20260505205548 28 137 0.0 9.7 0.00 0.00 0.00 51 1015.1
20260505205049 28 121 1.6 8.0 0.00 0.00 0.00 52 1015.3
20260505204555 28 308 1.6 8.0 0.00 0.00 0.00 52 1015.2
20260505204046 29 101 1.6 12.9 0.00 0.00 0.00 50 1015.3
20260505203542 29 154 1.6 6.4 0.00 0.00 0.00 49 1015.3
20260505203047 29 198 0.0 8.0 0.00 0.00 0.00 51 1015.4
20260505202541 28 328 3.2 8.0 0.00 0.00 0.00 50 1015.5
20260505202043 29 39 1.6 9.7 0.00 0.00 0.00 50 1015.5
20260505201542 28 285 0.0 11.3 0.00 0.00 0.00 51 1015.6
20260505201039 29 357 3.2 11.3 0.00 0.00 0.00 51 1015.5
20260505200539 29 188 1.6 12.9 0.00 0.00 0.00 49 1015.5
20260505200048 29 110 1.6 12.9 0.00 0.00 0.00 52 1015.5
20260505195540 30 200 0.0 6.4 0.00 0.00 0.00 50 1015.6
20260505195037 30 271 1.6 6.4 0.00 0.00 0.00 50 1015.7
20260505194548 30 183 1.6 6.4 0.00 0.00 0.00 51 1015.7
20260505194041 30 117 1.6 9.7 0.00 0.00 0.00 49 1015.6
20260505193535 30 294 3.2 14.5 0.00 0.00 0.00 49 1015.7
20260505193035 30 295 0.0 14.5 0.00 0.00 0.00 51 1015.8
20260505192535 30 74 3.2 9.7 0.00 0.00 0.00 49 1015.7
20260505192030 30 108 0.0 8.0 0.00 0.00 0.00 49 1015.9
20260505191531 30 292 1.6 6.4 0.00 0.00 0.00 49 1016.0
20260505191030 30 300 0.0 8.0 0.00 0.00 0.00 51 1016.1
20260505190528 30 195 1.6 8.0 0.00 0.00 0.00 51 1016.2
20260505190030 30 298 0.0 8.0 0.00 0.00 0.00 52 1016.1
20260505185531 30 281 1.6 9.7 0.00 0.00 0.00 50 1016.1
20260505185024 30 214 1.6 11.3 0.00 0.00 0.00 50 1016.2
20260505184528 30 120 1.6 11.3 0.00 0.00 0.00 52 1016.2
20260505184023 30 348 3.2 11.3 0.00 0.00 0.00 50 1016.3
20260505183523 30 120 1.6 6.4 0.00 0.00 0.00 53 1016.2
20260505183120 30 107 0.0 4.8 0.00 0.00 0.00 53 1016.3
20260505182522 30 253 0.0 8.0 0.00 0.00 0.00 50 1016.3
20260505182017 29 94 1.6 8.0 0.00 0.00 0.00 54 1016.4
20260505181517 29 192 1.6 8.0 0.00 0.00 0.00 54 1016.3
20260505181033 28 312 1.6 8.0 0.00 0.00 0.00 55 1016.4
20260505180518 29 195 3.2 9.7 0.00 0.00 0.00 53 1016.5
20260505180032 29 167 1.6 9.7 0.00 0.00 0.00 52 1016.5
20260505175515 29 150 3.2 9.7 0.00 0.00 0.00 54 1016.5
20260505175018 30 110 1.6 8.0 0.00 0.00 0.00 51 1016.6
20260505174523 30 188 1.6 8.0 0.00 0.00 0.00 53 1016.7
20260505174010 30 46 0.0 4.8 0.00 0.00 0.00 55 1016.7
20260505173517 28 233 0.0 6.4 0.00 0.00 0.00 55 1016.7
20260505173012 27 156 0.0 6.4 0.00 0.00 0.00 56 1016.7
20260505172505 28 124 1.6 6.4 0.00 0.00 0.00 51 1016.7
20260505172004 28 284 1.6 4.8 0.00 0.00 0.00 55 1016.7
20260505171505 29 319 0.0 3.2 0.00 0.00 0.00 51 1016.7
20260505171004 29 110 0.0 3.2 0.00 0.00 0.00 52 1016.8
20260505170505 29 152 0.0 4.8 0.00 0.00 0.00 52 1016.9
20260505170100 30 203 0.0 4.8 0.00 0.00 0.00 53 1016.9
20260505170001 29 129 0.0 4.8 0.00 0.00 0.00 55 1016.8
20260505165557 29 103 1.6 4.8 0.00 0.00 0.00 56 1016.9
20260505165057 28 129 0.0 4.8 0.00 0.00 0.00 53 1017.0
20260505164556 28 131 1.6 4.8 0.00 0.00 0.00 55 1017.0
20260505164057 27 96 0.0 4.8 0.00 0.00 0.00 57 1017.0
20260505163554 27 355 0.0 3.2 0.00 0.00 0.00 57 1016.9
20260505163056 27 155 0.0 3.2 0.00 0.00 0.00 59 1017.0
20260505162551 27 285 0.0 1.6 0.00 0.00 0.00 58 1017.1
20260505162053 27 310 0.0 8.0 0.00 0.00 0.00 57 1017.1
20260505161603 27 172 1.6 8.0 0.00 0.00 0.00 54 1017.0
20260505161051 28 329 0.0 3.2 0.00 0.00 0.00 55 1017.0
20260505160550 28 267 0.0 6.4 0.00 0.00 0.00 52 1017.0
20260505153042 27 178 0.0 8.0 0.00 0.00 0.00 60 1017.0
20260505152035 27 168 0.0 6.4 0.00 0.00 0.00 61 1017.1
20260505151552 27 310 0.0 4.8 0.00 0.00 0.00 61 1017.1
20260505151037 26 231 1.6 4.8 0.00 0.00 0.00 60 1017.0
20260505150531 26 207 0.0 3.2 0.00 0.00 0.00 64 1017.1
20260505140556 23 309 0.0 3.2 0.00 0.00 0.00 72 1017.2
20260505140110 23 300 0.0 4.8 0.00 0.00 0.00 71 1017.2
20260505130127 19 146 0.0 1.6 0.00 0.00 0.00 88 1016.8
20260505125028 17 131 0.0 0.0 0.00 0.00 0.00 92 1016.7
20260505124537 17 185 0.0 1.6 0.00 0.00 0.00 94 1016.8
20260505124023 17 263 0.0 1.6 0.00 0.00 0.00 94 1016.8
20260505123625 16 11 0.0 0.0 0.00 0.00 0.00 94 1016.7
20260505123021 16 11 0.0 0.0 0.00 0.00 0.00 94 1016.8
20260505122517 16 11 0.0 0.0 0.00 0.00 0.00 94 1016.9
20260505122022 15 11 0.0 0.0 0.00 0.00 0.00 94 1016.9
20260505121020 15 11 0.0 1.6 0.00 0.00 0.00 94 1016.7
20260505120515 15 10 0.0 0.0 0.00 0.00 0.00 94 1016.5
20260505120017 14 10 0.0 0.0 0.00 0.00 0.00 94 1016.5
20260505115506 14 10 0.0 0.0 0.00 0.00 0.00 94 1016.4
20260505115005 13 10 0.0 0.0 0.00 0.00 0.00 94 1016.3
20260505114504 13 10 0.0 0.0 0.00 0.00 0.00 94 1016.4
20260505114003 13 10 0.0 0.0 0.00 0.00 0.00 93 1016.5
20260505113503 13 10 0.0 0.0 0.00 0.00 0.00 93 1016.5
20260505113003 13 10 0.0 0.0 0.00 0.00 0.00 93 1016.5
20260505112549 13 10 0.0 0.0 0.00 0.00 0.00 93 1016.4
20260505112046 13 10 0.0 0.0 0.00 0.00 0.00 93 1016.4
20260505111546 13 10 0.0 0.0 0.00 0.00 0.00 93 1016.3
20260505111045 13 10 0.0 0.0 0.00 0.00 0.00 93 1016.2
20260505110559 12 10 0.0 0.0 0.00 0.00 0.00 93 1016.2
20260505102037 13 10 0.0 0.0 0.00 0.00 0.00 93 1015.8
20260505101536 13 10 0.0 0.0 0.00 0.00 0.00 92 1015.7
20260505101033 13 10 0.0 0.0 0.00 0.00 0.00 92 1015.7
20260505100531 13 10 0.0 0.0 0.00 0.00 0.00 92 1015.5
20260505100032 13 10 0.0 0.0 0.00 0.00 0.00 92 1015.5
20260505095532 13 10 0.0 0.0 0.00 0.00 0.00 93 1015.4
20260505095033 13 10 0.0 0.0 0.00 0.00 0.00 92 1015.4
20260505094528 13 10 0.0 0.0 0.00 0.00 0.00 92 1015.3
20260505094028 13 10 0.0 0.0 0.00 0.00 0.00 92 1015.3
20260505093526 13 10 0.0 0.0 0.00 0.00 0.00 92 1015.3
20260505093034 13 10 0.0 0.0 0.00 0.00 0.00 92 1015.3
20260505092524 13 10 0.0 0.0 0.00 0.00 0.00 92 1015.2
20260505092021 13 10 0.0 0.0 0.00 0.00 0.00 92 1015.1
20260505091525 13 10 0.0 0.0 0.00 0.00 0.00 92 1015.0
20260505091020 13 10 0.0 0.0 0.00 0.00 0.00 92 1015.0
20260505090525 13 10 0.0 0.0 0.00 0.00 0.00 92 1014.9
20260505090021 13 10 0.0 0.0 0.00 0.00 0.00 92 1015.0
20260505085526 13 10 0.0 0.0 0.00 0.00 0.00 92 1014.9
20260505085020 13 10 0.0 0.0 0.00 0.00 0.00 92 1015.0
20260505084518 13 10 0.0 0.0 0.00 0.00 0.00 92 1014.9
20260505084019 13 10 0.0 0.0 0.00 0.00 0.00 92 1015.0
20260505083517 13 10 0.0 0.0 0.00 0.00 0.00 92 1015.0
20260505083024 13 10 0.0 0.0 0.00 0.00 0.00 92 1014.9
20260505082516 13 10 0.0 0.0 0.00 0.00 0.00 92 1014.9
20260505082014 13 10 0.0 0.0 0.00 0.00 0.00 92 1014.9
20260505081614 13 10 0.0 0.0 0.00 0.00 0.00 92 1014.7